Regional Weather Roundup
Issued by NWS Spokane, WA

Home | Current Version | Previous Version | Text Only | Print | Product List | Glossary On
Versions: 1 2 3 4 5 6 7 8 9 10 11 12 13 14 15 16 17 18 19 20 21 22 23 24 25 26 27 28 29 30 31 32 33 34 35 36 37 38 39 40 41 42 43 44 45 46 47 48 49 50
000
NZUS01 KOTX 241410
RWROTX
EASTERN WASHINGTON/NORTHERN IDAHO ROUNDUP
NATIONAL WEATHER SERVICE, SPOKANE WA
700 AM PDT SUN MAY 24 2015

Note: "fair" indicated few or no clouds below 12,000 feet with no
significant weather and/or obstructions to visibility.

...NORTHEAST WASHINGTON AND NORTHERN IDAHO PANHANDLE...

CITY           SKY/WX    TMP DP  RH WIND       PRES   REMARKS
SPOKANE INTL   PTSUNNY   61  50  67 SW3       30.01S
SPOKANE DOWNTO SUNNY     60  52  74 E3        30.01F
COEUR D ALENE  SUNNY     57  48  72 NE3       30.01S
DEER PARK      SUNNY     60  52  74 CALM      30.01F
SANDPOINT      SUNNY     55  41  58 CALM      30.02F
BONNERS FERRY  FAIR      55  41  58 CALM      30.03S

...SOUTHEAST WASHINGTON AND SOUTHERN IDAHO PANHANDLE...

CITY           SKY/WX    TMP DP  RH WIND       PRES   REMARKS
WALLA WALLA    SUNNY     60  50  69 SW7       30.02R
PULLMAN/MOSCOW SUNNY     53  49  86 CALM      30.03S
LEWISTON       SUNNY     56  53  90 SE6       30.00S
LOWELL           N/A     53  49  86 N3        30.05S

...COLUMBIA BASIN...

CITY           SKY/WX    TMP DP  RH WIND       PRES   REMARKS
EPHRATA        SUNNY     57  51  80 NE8       29.97R
MOSES LAKE     MOSUNNY   59  52  77 SE5       29.98R
TRI CITIES     SUNNY     60  49  66 S10       30.00R
HERMISTON      SUNNY     59  48  67 SW9       30.02R
PENDLETON      SUNNY     56  50  80 E3        30.03R

...EAST SLOPES CASCADES...

CITY           SKY/WX    TMP DP  RH WIND       PRES   REMARKS
THE DALLES     SUNNY     59  49  69 NW15      30.04S
YAKIMA         SUNNY     59  48  67 SW3       30.00S
ELLENSBURG     MOSUNNY   58  47  66 NW17      30.01F
WENATCHEE      MOSUNNY   63  46  54 NW14      30.00S
OMAK           MOSUNNY   62  45  53 N8        29.98S

...SOUTHERN BRITISH COLUMBIA...

CITY           SKY/WX    TMP DP  RH WIND       PRES   REMARKS
PENTICTON      PTSUNNY   63  50  63 N8        30.01R
CASTLEGAR      PTSUNNY   54  41  62 VRB2      30.02S
CRANBROOK      PTSUNNY   54  34  47 SW3       30.07F

...WESTERN MONTANA...

CITY           SKY/WX    TMP DP  RH WIND       PRES   REMARKS
MISSOULA       MOSUNNY   50  43  77 CALM      30.08S

...NEIGHBORING CITIES...

CITY           SKY/WX    TMP DP  RH WIND       PRES   REMARKS
SEATTLE        CLOUDY    53  48  83 SW5       30.16S
CALGARY        PTSUNNY   50  32  50 SW3       30.09F



USA.gov is the U.S. government's official web portal to all federal, state and local government web resources and services.